Location: Ladysmith
(45.4630°N, 91.1040°W)
Time: 09:52:11
(UTC-06:00)

Amateur Radio Satellites - All Passes

Search period start: 19 December 2014 09:22
Search period end: 20 December 2014 09:22
Location: Ladysmith, 45.4630°N, 91.1040°W

Satellite Date Start Highest point End Downlink Frequencies (MHz)
Time Altitude Azimuth
AAUSAT CUBESAT 2 19 Dec 09:22:12 09:26:28 73° 102° (ESE) 09:30:41 437.432
ZACube-1 19 Dec 09:23:05 09:26:22 20° 92° (E) 09:29:41 437.345
POLYITAN 1 19 Dec 09:27:33 09:31:19 33° 68° (ENE) 09:35:06 437.675
CANX-2 19 Dec 09:30:14 09:34:29 55° 287° (WNW) 09:38:41 2200.000
NANOSAT C BR1 19 Dec 09:31:07 09:34:56 35° 69° (ENE) 09:38:47 145.865
GOMX 1 19 Dec 09:38:45 09:43:22 67° 286° (WNW) 09:48:19 467.674
DANDE 19 Dec 09:39:04 09:42:22 44° 92° (E) 09:46:44 436.750
QB50P1 19 Dec 09:44:58 09:49:01 49° 72° (ENE) 09:53:06 145.935-145.965
UWE-3 19 Dec 09:46:22 09:50:39 39° 97° (E) 09:54:59 435.000/436.395/437.385
FUNcube-1 19 Dec 09:49:41 09:53:50 35° 97° (E) 09:58:01 145.935
O/OREOS (USA 219) 19 Dec 09:50:36 09:54:41 33° 57° (ENE) 09:58:46 437.305
TIGRISAT 19 Dec 09:54:56 09:59:17 88° 256° (WSW) 10:03:46 435.000
COMPASS 1 19 Dec 09:56:36 10:00:39 43° 289° (WNW) 10:04:40 437.405
HO-68 19 Dec 09:56:37 10:03:37 59° 293° (WNW) 10:10:35 435.675
SEEDS 19 Dec 10:00:09 10:04:03 34° 291° (WNW) 10:07:56 437.485
AISAT 19 Dec 10:01:30 10:05:12 26° 95° (E) 10:08:54 437.250
CUTE 1.7 + AOD 2 19 Dec 10:01:39 10:05:25 30° 292° (WNW) 10:09:09 437.475
DX 1 19 Dec 10:06:56 10:11:18 81° 104° (ESE) 10:15:38 434.975-435.025
DOVE 4 19 Dec 10:11:30 10:15:55 43° 289° (WNW) 10:20:36 437.250
POPSAT HIP 1 19 Dec 10:13:18 10:17:30 83° 257° (WSW) 10:21:45 437.405
CUBEBUG 1 19 Dec 10:14:21 10:16:26 13° 90° (E) 10:18:31 437.445
MaSat-1 19 Dec 10:16:40 10:17:38 12° 308° (NW) 10:18:35 437.345
RS-15 19 Dec 10:19:53 10:27:12 21° 99° (E) 10:34:30 29.354- 29.394
DELFI C3 19 Dec 10:22:17 10:26:22 58° 287° (WNW) 10:30:24 145.870
UNISAT 6 19 Dec 10:23:34 10:27:44 44° 262° (W) 10:32:01 437.425
50 SAT 19 Dec 10:24:36 10:28:29 37° 98° (E) 10:32:21 437.505
Oscar 11 19 Dec 10:32:25 10:36:32 41° 290° (WNW) 10:40:38 145.826/435.025
HUMSAT D 19 Dec 10:34:44 10:39:02 61° 101° (E) 10:43:20 437.325/437.525
CUSAT 1 19 Dec 10:37:47 10:41:12 33° 292° (WNW) 10:45:39 437.405
UKube-1 19 Dec 10:39:52 10:44:02 48° 289° (WNW) 10:48:11 .
YUBILEINY 19 Dec 10:41:03 10:49:40 61° 76° (ENE) 10:58:13 435.215
CUBEBUG 2 19 Dec 10:41:22 10:45:51 53° 288° (WNW) 10:50:25 437.445
DUCHIFAT 1 19 Dec 10:42:28 10:46:25 40° 262° (W) 10:50:24 145.980
BRITE-PL 19 Dec 10:44:23 10:46:43 14° 299° (WNW) 10:49:08 437.365/2234.400
CINEMA 3 19 Dec 10:48:22 10:52:29 31° 292° (WNW) 10:56:44 145.822/145.860
BUGSAT 1 19 Dec 10:48:51 10:52:44 40° 261° (W) 10:56:36 437.445
ESTCUBE 1 19 Dec 10:52:23 10:56:32 35° 97° (E) 11:00:38 437.505/2401.250
VELOX 1 19 Dec 10:55:11 10:59:38 88° 104° (ESE) 11:04:04 145.980
QB50P2 19 Dec 10:55:16 10:58:57 29° 264° (W) 11:02:40 145.880/145.840
ANTELSAT 19 Dec 10:56:26 10:59:47 21° 268° (W) 11:03:12 437.575/2403.000
ZACube-1 19 Dec 10:58:38 11:02:58 47° 289° (WNW) 11:07:21 437.345
AAUSAT CUBESAT 2 19 Dec 10:59:39 11:01:33 13° 300° (WNW) 11:03:27 437.432
POLYITAN 1 19 Dec 11:03:53 11:07:19 24° 266° (W) 11:10:46 437.675
NANOSAT C BR1 19 Dec 11:07:36 11:10:55 22° 266° (W) 11:14:15 145.865
QB50P1 19 Dec 11:22:33 11:25:12 16° 269° (W) 11:27:52 145.935-145.965
UWE-3 19 Dec 11:23:18 11:27:00 25° 294° (WNW) 11:30:46 435.000/436.395/437.385
DANDE 19 Dec 11:24:13 11:26:31 15° 303° (WNW) 11:29:11 436.750
Oscar 19 19 Dec 11:26:06 11:29:50 21° 61° (ENE) 11:33:36 437.125/150
FUNcube-1 19 Dec 11:26:17 11:30:03 27° 293° (WNW) 11:33:51 145.935
SPROUT 19 Dec 11:27:29 11:30:35 19° 92° (E) 11:33:41 437.525
TISAT 1 19 Dec 11:28:56 11:32:08 21° 93° (E) 11:35:19 437.305
O/OREOS (USA 219) 19 Dec 11:30:07 11:34:00 29° 255° (WSW) 11:37:54 437.305
AISAT 19 Dec 11:37:53 11:41:53 34° 292° (WNW) 11:45:53 437.250
ITAMSAT 1 19 Dec 11:41:00 11:42:45 12° 54° (NE) 11:44:29 435.822/435.867
DX 1 19 Dec 11:45:08 11:46:55 12° 301° (WNW) 11:48:42 434.975-435.025
HO-68 19 Dec 11:46:31 11:49:54 14° 314° (NW) 11:53:17 435.675
CUBEBUG 1 19 Dec 11:48:57 11:53:15 64° 287° (WNW) 11:57:31 437.445
50 SAT 19 Dec 12:00:19 12:03:30 22° 295° (WNW) 12:06:40 437.505
HUMSAT D 19 Dec 12:11:50 12:14:22 16° 298° (WNW) 12:16:55 437.325/437.525
AO-7 19 Dec 12:14:59 12:16:23 11° 33° (NNE) 12:17:47 29.400- 29.500
RS-15 19 Dec 12:26:48 12:37:43 82° 122° (ESE) 12:48:44 29.354- 29.394
ESTCUBE 1 19 Dec 12:29:32 12:33:16 26° 294° (WNW) 12:36:59 437.505/2401.250
VELOX 1 19 Dec 12:34:01 12:35:32 12° 302° (WNW) 12:37:03 145.980
YUBILEINY 19 Dec 12:38:34 12:45:56 32° 277° (W) 12:53:18 435.215
PCSat 19 Dec 13:02:39 13:06:28 20° 106° (ESE) 13:10:18 145.827
SPROUT 19 Dec 13:02:48 13:06:53 43° 289° (WNW) 13:10:57 437.525
Gurwin Techsat 1B 19 Dec 13:03:37 13:08:25 36° 66° (ENE) 13:13:14 435.225
Oscar 19 19 Dec 13:03:40 13:08:44 60° 259° (W) 13:13:52 437.125/150
TISAT 1 19 Dec 13:04:10 13:08:06 38° 290° (WNW) 13:12:01 437.305
ITUPSAT 1 19 Dec 13:11:39 13:16:07 37° 98° (E) 13:20:31 437.325
SWISSCUBE 19 Dec 13:11:43 13:16:15 41° 98° (E) 13:20:44 437.505
BEESAT 3 19 Dec 13:14:22 13:18:02 32° 116° (ESE) 13:21:45 437.485
AIST 2 19 Dec 13:14:48 13:17:12 15° 110° (ESE) 13:19:38 435.215
ITAMSAT 1 19 Dec 13:16:10 13:21:20 73° 73° (ENE) 13:26:30 435.822/435.867
KKS-1 19 Dec 13:27:49 13:29:27 12° 89° (E) 13:31:05 437.445
BEESAT 19 Dec 13:36:53 13:41:40 68° 102° (ESE) 13:46:24 436.000
AUBIESAT-1 19 Dec 13:40:21 13:43:56 24° 98° (E) 13:47:17 437.475
ISS 19 Dec 13:43:13 13:45:52 23° 138° (SE) 13:48:32 145.825
BEESAT 2 19 Dec 13:52:28 13:56:33 70° 123° (ESE) 14:00:44 435.950
JAS-2 19 Dec 13:54:42 13:56:29 11° 49° (NE) 13:58:15 435.910
HORYU 2 19 Dec 13:56:32 14:00:43 41° 69° (ENE) 14:04:57 437.375
AO-7 19 Dec 13:59:21 14:06:46 38° 57° (ENE) 14:14:13 29.400- 29.500
M-CUBED/EXP-1 PRIME 19 Dec 14:04:30 14:08:50 48° 104° (ESE) 14:12:48 437.505
GONETS M04 19 Dec 14:40:37 14:45:50 17° 54° (NE) 14:51:00
RS-15 19 Dec 14:41:14 14:51:17 40° 329° (NNW) 15:01:33 29.354- 29.394
Gurwin Techsat 1B 19 Dec 14:43:38 14:48:23 33° 264° (W) 14:53:11 435.225
PCSat 19 Dec 14:43:57 14:49:20 67° 305° (NW) 14:54:46 145.827
ITUPSAT 1 19 Dec 14:49:51 14:53:51 27° 295° (WNW) 14:57:50 437.325
SWISSCUBE 19 Dec 14:50:02 14:53:54 25° 296° (WNW) 14:57:45 437.505
AIST 2 19 Dec 14:51:04 14:55:18 67° 308° (NW) 14:59:37 435.215
BEESAT 3 19 Dec 14:52:29 14:56:12 32° 315° (NW) 14:59:59 437.485
ITAMSAT 1 19 Dec 14:58:19 15:01:22 16° 270° (W) 15:04:25 435.822/435.867
STARS 19 Dec 15:01:17 15:05:44 73° 103° (ESE) 15:10:10 437.465
KKS-1 19 Dec 15:02:09 15:06:37 76° 286° (WNW) 15:11:05 437.445
AUBIESAT-1 19 Dec 15:14:55 15:19:01 36° 298° (WNW) 15:22:47 437.475
BEESAT 19 Dec 15:16:00 15:18:59 17° 300° (WNW) 15:21:57 436.000
AIST 1 19 Dec 15:18:52 15:20:08 11° 82° (E) 15:21:25
ISS 19 Dec 15:18:57 15:22:14 62° 335° (NNW) 15:25:30 145.825
BEESAT 2 19 Dec 15:32:16 15:35:16 19° 323° (NW) 15:38:18 435.950
JAS-2 19 Dec 15:32:54 15:40:08 49° 68° (ENE) 15:46:46 435.910
HORYU 2 19 Dec 15:34:06 15:37:33 22° 267° (W) 15:41:02 437.375
M-CUBED/EXP-1 PRIME 19 Dec 15:40:08 15:43:29 21° 304° (WNW) 15:46:38 437.505
AO-7 19 Dec 15:51:03 15:59:13 59° 257° (WSW) 16:07:28 29.400- 29.500
MOZHAYETS 4 19 Dec 16:03:08 16:06:20 18° 91° (E) 16:09:31
Cubesat XI-IV 19 Dec 16:03:29 16:07:03 19° 59° (ENE) 16:10:37 437.490
PCSat 19 Dec 16:30:26 16:33:49 16° 327° (NNW) 16:37:12 145.827
AIST 2 19 Dec 16:32:30 16:34:46 14° 329° (NNW) 16:37:02 435.215
CUTE-I 19 Dec 16:35:43 16:40:23 32° 65° (ENE) 16:45:04 437.470
GONETS M04 19 Dec 16:35:46 16:44:34 71° 78° (ENE) 16:53:14
STARS 19 Dec 16:39:23 16:41:38 14° 300° (WNW) 16:43:54 437.465
AIST 1 19 Dec 16:52:47 16:57:10 73° 280° (W) 17:01:32
ISS 19 Dec 16:56:21 16:59:14 27° 355° (N) 17:02:07 145.825
RS-15 19 Dec 16:58:34 17:07:39 28° 4° (N) 17:16:58 29.354- 29.394
PRISM 19 Dec 17:15:05 17:17:11 14° 90° (E) 17:19:15 437.425
JAS-2 19 Dec 17:18:14 17:25:14 38° 264° (W) 17:31:45 435.910
MOZHAYETS 4 19 Dec 17:39:22 17:43:53 52° 288° (WNW) 17:48:20
Cubesat XI-IV 19 Dec 17:41:15 17:46:35 72° 257° (WSW) 17:51:55 437.490
AO-7 19 Dec 17:52:21 17:53:48 11° 277° (W) 17:55:16 29.400- 29.500
MaSat-1 19 Dec 18:10:42 18:13:04 73° 62° (ENE) 18:15:33 437.345
CUTE-I 19 Dec 18:15:28 18:20:22 37° 263° (W) 18:25:19 437.470
ISS 19 Dec 18:33:20 18:36:24 35° 15° (NNE) 18:39:27 145.825
GONETS M04 19 Dec 18:33:38 18:40:35 28° 280° (W) 18:47:30
DANDE 19 Dec 18:33:58 18:38:05 15° 58° (ENE) 18:42:31 436.750
HO-68 19 Dec 18:40:43 18:46:44 30° 57° (ENE) 18:52:44 435.675
STRAND 1 19 Dec 18:41:52 18:46:47 47° 99° (E) 18:51:40 437.568
BRITE-PL 19 Dec 18:42:35 18:44:13 12° 60° (ENE) 18:45:50 437.365/2234.400
PRISM 19 Dec 18:49:00 18:53:06 58° 288° (WNW) 18:57:09 437.425
CANX-2 19 Dec 18:51:28 18:54:03 16° 62° (ENE) 18:56:38 2200.000
CUBESAT XI-V 19 Dec 18:58:59 19:03:38 84° 103° (ESE) 19:08:14 437.345
RS-15 19 Dec 19:13:01 19:23:40 47° 37° (NE) 19:34:42 29.354- 29.394
GOMX 1 19 Dec 19:13:27 19:16:15 18° 63° (ENE) 19:19:05 467.674
COMPASS 1 19 Dec 19:15:58 19:18:55 19° 64° (ENE) 19:21:53 437.405
SEEDS 19 Dec 19:19:30 19:22:52 23° 66° (ENE) 19:26:17 437.485
CUTE 1.7 + AOD 2 19 Dec 19:21:10 19:24:48 28° 67° (ENE) 19:28:28 437.475
CUSAT 1 19 Dec 19:29:09 19:36:01 38° 70° (ENE) 19:43:42 437.405
DX 1 19 Dec 19:32:00 19:33:25 11° 58° (ENE) 19:34:51 434.975-435.025
DELFI C3 19 Dec 19:40:14 19:42:07 13° 61° (ENE) 19:44:00 145.870
DOVE 4 19 Dec 19:43:03 19:46:30 26° 67° (ENE) 19:50:01 437.250
Oscar 11 19 Dec 19:54:09 19:57:29 22° 65° (ENE) 20:00:51 145.826/435.025
BEESAT 3 19 Dec 19:55:57 19:56:30 10° 27° (NNE) 19:57:02 437.485
UKube-1 19 Dec 20:02:04 20:05:22 22° 64° (ENE) 20:08:39 .
CUBEBUG 2 19 Dec 20:07:03 20:09:59 19° 63° (ENE) 20:12:59 437.445
ISS 19 Dec 20:09:53 20:13:07 57° 214° (SW) 20:16:20 145.825
DANDE 19 Dec 20:15:23 20:22:43 64° 76° (ENE) 20:31:15 436.750
AAUSAT CUBESAT 2 19 Dec 20:15:28 20:19:38 66° 74° (ENE) 20:23:52 437.432
CINEMA 3 19 Dec 20:15:48 20:19:35 34° 69° (ENE) 20:23:27 145.822/145.860
BRITE-PL 19 Dec 20:18:03 20:22:13 70° 258° (WSW) 20:26:22 437.365/2234.400
VELOX 1 19 Dec 20:21:35 20:23:36 13° 59° (ENE) 20:25:37 145.980
STRAND 1 19 Dec 20:21:36 20:25:42 25° 297° (WNW) 20:29:48 437.568
ZACube-1 19 Dec 20:22:06 20:25:08 20° 64° (ENE) 20:28:13 437.345
CANX-2 19 Dec 20:25:20 20:29:32 58° 260° (W) 20:33:48 2200.000
HO-68 19 Dec 20:26:52 20:33:58 64° 257° (WSW) 20:41:08 435.675
BEESAT 2 19 Dec 20:33:22 20:36:00 16° 35° (NE) 20:38:37 435.950
CUBESAT XI-V 19 Dec 20:38:23 20:40:24 13° 301° (WNW) 20:42:25 437.345
UWE-3 19 Dec 20:46:14 20:50:08 39° 70° (ENE) 20:54:07 435.000/436.395/437.385
FUNcube-1 19 Dec 20:48:13 20:52:01 34° 69° (ENE) 20:55:54 145.935
GOMX 1 19 Dec 20:50:08 20:54:06 44° 261° (W) 20:58:07 467.674
COMPASS 1 19 Dec 20:50:15 20:54:18 46° 261° (W) 20:58:25 437.405
SEEDS 19 Dec 20:54:37 20:58:31 35° 263° (W) 21:02:29 437.485
CUTE 1.7 + AOD 2 19 Dec 20:56:55 21:00:40 30° 265° (W) 21:04:28 437.475
AISAT 19 Dec 21:01:56 21:05:50 31° 67° (ENE) 21:09:44 437.250
DX 1 19 Dec 21:04:39 21:09:00 88° 256° (WSW) 21:13:22 434.975-435.025
SO-50 19 Dec 21:07:21 21:11:40 45° 119° (ESE) 21:16:09 436.795
CUSAT 1 19 Dec 21:12:00 21:19:19 56° 266° (W) 21:27:32 437.405
DELFI C3 19 Dec 21:12:45 21:16:50 69° 258° (WSW) 21:20:59 145.870
CUBEBUG 1 19 Dec 21:13:00 21:15:42 16° 62° (ENE) 21:18:25 437.445
50 SAT 19 Dec 21:15:19 21:18:54 32° 69° (ENE) 21:22:31 437.505
DOVE 4 19 Dec 21:20:38 21:24:14 29° 265° (W) 21:27:54 437.250
RS-15 19 Dec 21:25:38 21:36:44 69° 242° (WSW) 21:48:21 29.354- 29.394
HUMSAT D 19 Dec 21:29:12 21:33:15 57° 73° (ENE) 21:37:22 437.325/437.525
Oscar 11 19 Dec 21:29:21 21:33:25 40° 262° (W) 21:37:32 145.826/435.025
BEESAT 3 19 Dec 21:31:45 21:35:46 43° 48° (NE) 21:39:44 437.485
AIST 2 19 Dec 21:33:02 21:36:36 24° 41° (NE) 21:40:07 435.215
UKube-1 19 Dec 21:37:10 21:41:16 41° 261° (W) 21:45:24 .
CUBEBUG 2 19 Dec 21:42:22 21:46:22 45° 262° (W) 21:50:30 437.445
TIGRISAT 19 Dec 21:45:30 21:48:42 18° 91° (E) 21:51:54 435.000
PCSat 19 Dec 21:46:43 21:51:30 30° 45° (NE) 21:56:14 145.827
CINEMA 3 19 Dec 21:53:39 21:56:55 22° 267° (W) 22:00:15 145.822/145.860
AAUSAT CUBESAT 2 19 Dec 21:54:02 21:55:46 12° 271° (W) 21:57:31 437.432
ESTCUBE 1 19 Dec 21:54:14 21:58:32 43° 70° (ENE) 22:02:50 437.505/2401.250
YUBILEINY 19 Dec 21:54:44 21:57:56 13° 71° (ENE) 22:01:08 435.215
VELOX 1 19 Dec 21:55:09 21:59:35 78° 257° (WSW) 22:04:01 145.980
ZACube-1 19 Dec 21:57:14 22:01:13 42° 262° (W) 22:05:18 437.345
POPSAT HIP 1 19 Dec 21:58:09 22:00:26 14° 90° (E) 22:02:43 437.405
DANDE 19 Dec 21:59:26 22:05:56 33° 271° (W) 22:13:13 436.750
BEESAT 2 19 Dec 22:10:39 22:14:53 88° 55° (NE) 22:19:03 435.950
UNISAT 6 19 Dec 22:13:21 22:17:37 34° 96° (E) 22:21:54 437.425
HO-68 19 Dec 22:21:24 22:23:04 11° 276° (W) 22:24:45 435.675
UWE-3 19 Dec 22:23:45 22:26:52 20° 268° (W) 22:30:02 435.000/436.395/437.385
TISAT 1 19 Dec 22:24:01 22:27:15 22° 65° (ENE) 22:30:29 437.305
SPROUT 19 Dec 22:24:17 22:27:27 21° 64° (ENE) 22:30:39 437.525
FUNcube-1 19 Dec 22:25:09 22:28:28 23° 267° (W) 22:31:52 145.935
DUCHIFAT 1 19 Dec 22:25:37 22:29:15 27° 95° (E) 22:32:52 145.980
BUGSAT 1 19 Dec 22:29:30 22:32:46 23° 95° (E) 22:36:01 437.445
QB50P2 19 Dec 22:38:13 22:42:12 37° 98° (E) 22:46:11 145.880/145.840
AISAT 19 Dec 22:38:39 22:42:27 28° 264° (W) 22:46:16 437.250
ANTELSAT 19 Dec 22:44:55 22:49:37 69° 102° (ESE) 22:54:20 437.575/2403.000
POLYITAN 1 19 Dec 22:46:36 22:50:45 46° 99° (E) 22:54:52 437.675
CUBEBUG 1 19 Dec 22:47:20 22:51:39 58° 259° (W) 22:55:58 437.445
SO-50 19 Dec 22:48:22 22:52:24 29° 319° (NW) 22:56:33 436.795
NANOSAT C BR1 19 Dec 22:49:41 22:53:49 48° 100° (E) 22:57:57 145.865
50 SAT 19 Dec 22:50:59 22:54:11 23° 266° (W) 22:57:25 437.505
CUSAT 1 19 Dec 22:58:55 23:01:10 11° 283° (WNW) 23:03:28 437.405
QB50P1 19 Dec 23:03:51 23:08:07 70° 102° (ESE) 23:12:22 145.935-145.965
HUMSAT D 19 Dec 23:07:18 23:09:27 14° 270° (W) 23:11:36 437.325/437.525
BEESAT 3 19 Dec 23:10:26 23:13:43 23° 246° (WSW) 23:16:58 437.485
BEESAT 19 Dec 23:10:47 23:13:11 14° 58° (ENE) 23:15:36 436.000
AIST 2 19 Dec 23:11:18 23:15:28 50° 240° (WSW) 23:19:34 435.215
TIGRISAT 19 Dec 23:21:10 23:25:45 55° 288° (WNW) 23:30:21 435.000
M-CUBED/EXP-1 PRIME 19 Dec 23:22:47 23:25:35 15° 53° (NE) 23:28:23 437.505
PCSat 19 Dec 23:29:54 23:35:10 52° 245° (WSW) 23:40:23 145.827
ESTCUBE 1 19 Dec 23:32:08 23:35:35 21° 267° (W) 23:39:04 437.505/2401.250
POPSAT HIP 1 19 Dec 23:32:31 23:36:43 58° 287° (WNW) 23:40:54 437.405
RS-15 19 Dec 23:40:48 23:46:57 17° 264° (W) 23:53:15 29.354- 29.394
YUBILEINY 19 Dec 23:44:17 23:52:52 64° 92° (E) 00:01:27 435.215
UNISAT 6 19 Dec 23:50:15 23:54:19 30° 293° (WNW) 23:58:24 437.425
BEESAT 2 19 Dec 23:51:36 23:52:27 11° 252° (WSW) 23:53:17 435.950
TISAT 1 19 Dec 23:58:57 00:02:52 37° 262° (W) 00:06:48 437.305
SPROUT 19 Dec 23:59:14 00:03:17 41° 262° (W) 00:07:22 437.525
DUCHIFAT 1 20 Dec 00:01:23 00:05:06 30° 292° (WNW) 00:08:49 145.980
BUGSAT 1 20 Dec 00:04:42 00:08:19 32° 291° (WNW) 00:11:56 437.445
O/OREOS (USA 219) 20 Dec 00:05:46 00:09:17 23° 103° (ESE) 00:12:49 437.305
QB50P2 20 Dec 00:14:35 00:17:56 23° 295° (WNW) 00:21:16 145.880/145.840
SWISSCUBE 20 Dec 00:20:27 00:25:11 62° 72° (ENE) 00:29:55 437.505
ITUPSAT 1 20 Dec 00:20:36 00:25:18 56° 71° (ENE) 00:30:01 437.325
ANTELSAT 20 Dec 00:23:01 00:25:54 16° 299° (WNW) 00:28:46 437.575/2403.000
POLYITAN 1 20 Dec 00:23:20 00:26:23 19° 296° (WNW) 00:29:26 437.675
NANOSAT C BR1 20 Dec 00:26:28 00:29:21 18° 297° (WNW) 00:32:15 145.865
KKS-1 20 Dec 00:28:11 00:30:48 16° 61° (ENE) 00:33:26 437.445
STARS 20 Dec 00:28:16 00:29:11 11° 57° (ENE) 00:30:06 437.465
AUBIESAT-1 20 Dec 00:30:15 00:34:56 51° 65° (ENE) 00:39:40 437.475
QB50P1 20 Dec 00:41:24 00:43:28 14° 300° (WNW) 00:45:33 145.935-145.965
BEESAT 20 Dec 00:45:34 00:50:22 84° 256° (WSW) 00:55:12 436.000
M-CUBED/EXP-1 PRIME 20 Dec 00:55:02 00:59:53 89° 251° (WSW) 01:04:51 437.505
Oscar 19 20 Dec 01:13:01 01:17:57 41° 98° (E) 01:22:50 437.125/150
Gurwin Techsat 1B 20 Dec 01:19:45 01:21:22 11° 86° (E) 01:22:59 435.225
ITAMSAT 1 20 Dec 01:27:35 01:31:31 22° 92° (E) 01:35:25 435.822/435.867
YUBILEINY 20 Dec 01:42:44 01:50:17 32° 294° (WNW) 01:57:52 435.215
O/OREOS (USA 219) 20 Dec 01:44:17 01:48:28 39° 301° (WNW) 01:52:41 437.305
ITUPSAT 1 20 Dec 02:00:16 02:03:32 18° 269° (W) 02:06:49 437.325
SWISSCUBE 20 Dec 02:00:26 02:03:27 17° 269° (W) 02:06:29 437.505
STARS 20 Dec 02:00:32 02:04:55 85° 75° (ENE) 02:09:20 437.465
KKS-1 20 Dec 02:02:34 02:06:57 63° 258° (WSW) 02:11:23 437.445
AUBIESAT-1 20 Dec 02:06:18 02:10:05 23° 263° (W) 02:13:55 437.475
M-CUBED/EXP-1 PRIME 20 Dec 02:33:37 02:35:31 12° 268° (W) 02:37:25 437.505
VERMONT LUNAR 20 Dec 02:49:27 02:50:42 12° 151° (SSE) 02:51:58 437.305
Oscar 19 20 Dec 02:52:41 02:57:07 29° 296° (WNW) 03:01:32 437.125/150
Gurwin Techsat 1B 20 Dec 02:56:47 03:02:08 84° 104° (ESE) 03:07:27 435.225
AIST 1 20 Dec 02:58:07 03:02:02 33° 74° (ENE) 03:05:54
ITAMSAT 1 20 Dec 03:06:17 03:11:19 53° 290° (WNW) 03:16:19 435.822/435.867
MOZHAYETS 4 20 Dec 03:07:20 03:10:59 23° 64° (ENE) 03:14:39
HORYU 2 20 Dec 03:22:10 03:26:40 62° 102° (ESE) 03:31:08 437.375
GONETS M04 20 Dec 03:47:44 03:52:26 16° 73° (ENE) 03:57:07
AO-7 20 Dec 03:49:59 03:57:55 44° 99° (E) 04:05:45 29.400- 29.500
SO-50 20 Dec 03:56:48 04:00:08 18° 32° (NNE) 04:03:29 436.795
PRISM 20 Dec 04:08:12 04:10:43 16° 61° (ENE) 04:13:15 437.425
STRAND 1 20 Dec 04:24:17 04:26:36 13° 56° (NE) 04:28:56 437.568
VERMONT LUNAR 20 Dec 04:25:16 04:28:22 29° 167° (SSE) 04:31:28 437.305
JAS-2 20 Dec 04:26:12 04:31:02 28° 92° (E) 04:35:32 435.910
CUBESAT XI-V 20 Dec 04:29:59 04:32:20 14° 59° (ENE) 04:34:41 437.345
PHONESAT 2.4 20 Dec 04:35:55 04:39:02 27° 165° (SSE) 04:42:09 2401.200-2431.200
AIST 1 20 Dec 04:36:10 04:39:30 22° 272° (W) 04:42:49
Gurwin Techsat 1B 20 Dec 04:38:17 04:41:25 16° 303° (WNW) 04:44:32 435.225
MOZHAYETS 4 20 Dec 04:43:33 04:47:58 43° 262° (W) 04:52:25
HORYU 2 20 Dec 05:00:02 05:02:52 17° 299° (WNW) 05:05:41 437.375
SO-50 20 Dec 05:36:34 05:41:28 78° 53° (NE) 05:46:23 436.795
GONETS M04 20 Dec 05:38:50 05:47:38 75° 94° (E) 05:56:27
PRISM 20 Dec 05:41:38 05:45:49 58° 259° (WSW) 05:50:00 437.425
AO-7 20 Dec 05:42:50 05:50:46 49° 299° (WNW) 05:58:39 29.400- 29.500
Cubesat XI-IV 20 Dec 05:56:30 06:01:27 38° 97° (E) 06:06:23 437.490
STRAND 1 20 Dec 05:59:53 06:05:00 84° 74° (ENE) 06:10:09 437.568
VERMONT LUNAR 20 Dec 06:03:02 06:06:18 36° 184° (S) 06:09:34 437.305
CUBESAT XI-V 20 Dec 06:04:29 06:09:10 79° 257° (WSW) 06:13:51 437.345
JAS-2 20 Dec 06:10:58 06:16:23 42° 294° (WNW) 06:21:21 435.910
PHONESAT 2.4 20 Dec 06:13:55 06:17:18 37° 182° (S) 06:20:42 2401.200-2431.200
CUTE-I 20 Dec 06:29:45 06:35:04 73° 103° (ESE) 06:40:23 437.470
SO-50 20 Dec 07:18:31 07:21:27 16° 251° (WSW) 07:24:22 436.795
Cubesat XI-IV 20 Dec 07:36:47 07:41:27 32° 295° (WNW) 07:46:05 437.490
AO-7 20 Dec 07:37:51 07:41:34 14° 322° (NW) 07:45:16 29.400- 29.500
GONETS M04 20 Dec 07:38:06 07:45:22 28° 297° (WNW) 07:52:40
VERMONT LUNAR 20 Dec 07:41:29 07:44:08 20° 201° (SSW) 07:46:47 437.305
STRAND 1 20 Dec 07:42:33 07:44:51 13° 272° (W) 07:47:09 437.568
PHONESAT 2.4 20 Dec 07:52:36 07:55:33 23° 198° (SSW) 07:58:30 2401.200-2431.200
HO-68 20 Dec 07:52:58 07:58:24 23° 91° (E) 08:03:46 435.675
CANX-2 20 Dec 08:09:23 08:12:42 21° 93° (E) 08:16:00 2200.000
CUTE-I 20 Dec 08:11:03 08:14:34 18° 302° (WNW) 08:18:04 437.470
BRITE-PL 20 Dec 08:19:43 08:23:51 30° 96° (E) 08:28:14 437.365/2234.400
COMPASS 1 20 Dec 08:32:25 08:35:56 24° 94° (E) 08:39:25 437.405
O/OREOS (USA 219) 20 Dec 08:35:36 08:36:34 11° 43° (NE) 08:37:33 437.305
SEEDS 20 Dec 08:37:04 08:40:57 32° 96° (E) 08:44:47 437.485
CUTE 1.7 + AOD 2 20 Dec 08:39:44 08:43:49 39° 98° (E) 08:47:52 437.475
CUSAT 1 20 Dec 08:45:22 08:48:08 19° 82° (E) 08:51:29 437.405
TIGRISAT 20 Dec 08:46:59 08:50:11 20° 63° (ENE) 08:53:26 435.000
GOMX 1 20 Dec 08:48:34 08:53:03 42° 98° (E) 08:57:49 467.674
DX 1 20 Dec 08:52:37 08:54:47 14° 90° (E) 08:56:57 434.975-435.025
DELFI C3 20 Dec 08:52:38 08:55:00 15° 90° (E) 08:57:20 145.870
POPSAT HIP 1 20 Dec 08:53:53 08:56:21 15° 62° (ENE) 08:58:50 437.405
MaSat-1 20 Dec 09:03:59 09:06:17 89° 113° (ESE) 09:08:31 437.345
